This demonstration page uses our WeatherBlox Daily Observations layout. Learn more.

Left ArrowRight Arrow

40.92945, -100.16068

Hourly Observations for April 24, 2021

Temp ( °F °C ) Dew Point ( °F °C ) Humidity (%) Winds ( mph kmh ) Pressure ( in mb ) Visibility ( mi km ) Precip ( " mm )
12:18 am 00:18 Clear 37 3 34 1 87 87 N 7 11 30.07 1018 10 16 N/A
12:37 am 00:37 Clear 37 3 34 1 87 87 N 13 20 30.06 1018 10 16 N/A
12:57 am 00:57 Partly Cloudy 37 3 34 1 87 87 NNE 6 9 30.09 1019 10 16 N/A
1:19 am 01:19 Cloudy 37 3 34 1 87 87 N 9 15 30.09 1019 10 16 N/A
1:38 am 01:38 Cloudy 37 3 34 1 87 87 N 13 20 30.10 1019 10 16 N/A
1:58 am 01:58 Cloudy 37 3 34 1 87 87 N 15 24 30.09 1019 10 16 N/A
2:17 am 02:17 Cloudy 37 3 34 1 87 87 N 14 22 30.09 1019 10 16 N/A
2:37 am 02:37 Cloudy 37 3 34 1 87 87 N 15 24 30.09 1019 10 16 N/A
2:58 am 02:58 Cloudy 37 3 34 1 87 87 N 9 15 30.10 1019 10 16 N/A
3:17 am 03:17 Cloudy 37 3 34 1 87 87 NNE 9 15 30.11 1020 10 16 N/A
3:37 am 03:37 Cloudy 37 3 34 1 87 87 NNE 8 13 30.11 1020 10 16 N/A
3:57 am 03:57 Cloudy 37 3 32 undefined 81 81 NE 9 15 30.11 1020 10 16 N/A
4:15 am 04:15 Cloudy 36 2.3 32 0.1 86 86 NNE 9 15 30.11 1020 10 16 N/A
4:35 am 04:35 Mostly Cloudy 35 1.9 32 undefined 87 87 NE 5 7 30.13 1020 10 16 N/A
4:55 am 04:55 Mostly Cloudy 36 2 33 0.3 89 89 N N/A 30.14 1021 10 16 N/A
5:15 am 05:15 Cloudy 36 2.4 33 0.3 86 86 NW 3 6 30.14 1021 10 16 N/A
5:35 am 05:35 Cloudy 36 2.3 33 0.5 88 88 N 7 11 30.13 1020 10 16 N/A
5:55 am 05:55 Cloudy 36 2.4 32 0.2 86 86 N 10 17 30.13 1020 10 16 N/A
6:15 am 06:15 Cloudy 37 2.5 32 0.2 85 85 N 13 20 30.13 1020 10 16 N/A
6:35 am 06:35 Cloudy 36 2.3 32 undefined 85 85 N 10 17 30.12 1020 10 16 N/A
6:55 am 06:55 Cloudy 36 2.2 32 undefined 86 86 N 10 17 30.14 1020 10 16 N/A
7:15 am 07:15 Cloudy 36 2 32 -0.2 86 86 N 9 15 30.14 1021 10 16 N/A
7:35 am 07:35 Cloudy 36 2.1 31 -0.3 84 84 N 8 13 30.15 1021 10 16 N/A
7:55 am 07:55 Cloudy 36 2.3 32 -0.2 84 84 N 9 15 30.14 1021 10 16 N/A
8:15 am 08:15 Cloudy 37 2.5 32 -0.1 83 83 N 8 13 30.15 1021 10 16 N/A
8:35 am 08:35 Cloudy 37 2.8 32 undefined 82 82 N 9 15 30.15 1021 10 16 N/A
8:55 am 08:55 Cloudy 38 3.1 32 undefined 80 80 N 9 15 30.16 1021 10 16 N/A
9:15 am 09:15 Cloudy 38 3.5 32 0.2 79 79 N 8 13 30.15 1021 10 16 N/A
9:35 am 09:35 Cloudy 39 3.9 32 0.2 77 77 N 9 15 30.15 1021 10 16 N/A
9:55 am 09:55 Cloudy 40 4.2 33 0.3 76 76 NE 8 13 30.14 1021 10 16 N/A
10:15 am 10:15 Cloudy 41 4.8 33 0.4 73 73 NNE 8 13 30.13 1020 10 16 N/A
10:35 am 10:35 Mostly Cloudy 42 5.3 33 0.4 71 71 NE 6 9 30.13 1020 10 16 N/A
10:55 am 10:55 Partly Cloudy 43 6 33 0.6 69 69 N 7 11 30.13 1020 10 16 N/A
11:15 am 11:15 Sunny 44 6.5 33 0.6 66 66 NNE 5 7 30.12 1020 10 16 N/A
11:35 am 11:35 Sunny 45 7.3 33 0.6 63 63 NE 5 7 30.11 1020 10 16 N/A
11:55 am 11:55 Sunny 46 8 33 0.6 60 60 ENE 5 7 30.10 1019 10 16 N/A
12:15 pm 12:15 Sunny 47 8.5 33 0.8 59 59 NNW 5 7 30.08 1018 10 16 N/A
12:35 pm 12:35 Sunny 48 9.1 33 0.5 55 55 SE 3 6 30.07 1018 10 16 N/A
12:55 pm 12:55 Sunny 49 9.6 33 0.4 53 53 ESE 6 9 30.05 1018 10 16 N/A
1:15 pm 13:15 Sunny 51 10.6 33 0.8 51 51 SE 5 7 30.04 1017 10 16 N/A
1:35 pm 13:35 Partly Cloudy 53 11.4 34 0.9 49 49 S 5 7 30.02 1017 10 16 N/A
1:55 pm 13:55 Partly Cloudy 53 11.6 34 1.2 49 49 NW 5 7 30.01 1016 10 16 N/A
2:15 pm 14:15 Sunny 54 12.3 34 1.3 47 47 SSE 7 11 29.99 1016 10 16 N/A
2:35 pm 14:35 Sunny 54 12.2 34 1.3 48 48 SE 6 9 29.98 1015 10 16 N/A
2:55 pm 14:55 Sunny 55 12.7 35 1.5 47 47 E 6 9 29.97 1015 10 16 N/A
3:15 pm 15:15 Sunny 56 13.3 35 1.4 45 45 S 6 9 29.95 1014 10 16 N/A
3:35 pm 15:35 Sunny 57 14 36 2 44 44 SSE 7 11 29.93 1014 10 16 N/A
3:55 pm 15:55 Sunny 58 14.3 35 1.8 43 43 SE 6 9 29.92 1013 10 16 N/A
4:15 pm 16:15 Sunny 59 14.9 36 2.4 43 43 SSE 9 15 29.91 1013 10 16 N/A
4:35 pm 16:35 Partly Cloudy 59 15 36 2.3 43 43 SE 10 17 29.91 1013 10 16 N/A
4:55 pm 16:55 Partly Cloudy 60 15.3 36 2.4 42 42 S 6 9 29.89 1012 7 11 N/A
5:15 pm 17:15 Sunny 59 15.2 37 2.7 43 43 S 8 13 29.87 1012 10 16 N/A
5:35 pm 17:35 Sunny 59 15.2 37 2.7 43 43 ESE 9 15 29.87 1012 10 16 N/A
5:55 pm 17:55 Sunny 60 15.3 37 2.6 43 43 SE 8 13 29.87 1012 10 16 N/A
6:15 pm 18:15 Partly Cloudy 60 15.5 37 2.9 43 43 SSE 7 11 29.87 1012 10 16 N/A
6:35 pm 18:35 Partly Cloudy 60 15.6 38 3.5 45 45 S 12 19 29.87 1012 10 16 N/A
6:55 pm 18:55 Sunny 59 15 39 4 48 48 S 7 11 29.88 1012 10 16 N/A
7:15 pm 19:15 Sunny 59 15 39 4 48 48 S 9 15 29.87 1011 10 16 N/A
7:35 pm 19:35 Sunny 59 14.8 39 4.1 49 49 SE 6 9 29.86 1011 10 16 N/A
7:55 pm 19:55 Partly Cloudy 58 14.6 39 4.1 50 50 SE 8 13 29.86 1011 10 16 N/A
8:15 pm 20:15 Cloudy 58 14.3 39 4.1 51 51 SE 8 13 29.86 1011 10 16 N/A
8:35 pm 20:35 Partly Cloudy 57 13.9 39 3.8 51 51 E 10 17 29.87 1011 10 16 N/A
8:55 pm 20:55 Partly Cloudy 55 13 38 3.1 51 51 ESE 12 19 29.87 1012 10 16 N/A
9:15 pm 21:15 Clear 55 12.6 38 3.3 53 53 E 7 11 29.89 1012 10 16 N/A
9:35 pm 21:35 Clear 54 12 38 3.2 55 55 E 8 13 29.89 1012 10 16 N/A
9:55 pm 21:55 Clear 52 11.3 38 3.4 59 59 E 7 11 29.91 1013 10 16 N/A
10:15 pm 22:15 Clear 51 10.8 38 3.6 61 61 E 8 13 29.91 1013 10 16 N/A
10:35 pm 22:35 Clear 52 10.9 38 3.6 61 61 ESE 9 15 29.91 1013 10 16 N/A
10:55 pm 22:55 Clear 51 10.5 38 3.5 62 62 ESE 10 17 29.92 1013 10 16 N/A
11:15 pm 23:15 Clear 50 10 38 3.5 64 64 ESE 10 17 29.91 1013 10 16 N/A
11:35 pm 23:35 Clear 50 9.8 38 3.5 65 65 ESE 13 20 29.90 1013 10 16 N/A
11:55 pm 23:55 Clear 49 9.6 38 3.6 66 66 ESE 13 20 29.90 1013 10 16 N/A

Powered by AerisWeather